Weather History for Fort Sill, OK

Change the Weather History Date:

Saturday, November 10, 2012

  Actual Average Record
Temperature  
Mean Temperature 69 °F -  
Max Temperature 78 °F 63 °F 83 °F (1963)
Min Temperature 60 °F 37 °F 21 °F (1986)
Cooling Degree Days 4    
Growing Degree Days 19 (Base 50)    
Moisture  
Dew Point 57 °F    
Average Humidity 69    
Maximum Humidity 88    
Minimum Humidity 49    
Precipitation  
Precipitation 0.00 in - - ()
Sea Level Pressure  
Sea Level Pressure 29.78 in    
Wind  
Wind Speed 13 mph (South)    
Max Wind Speed 25 mph    
Max Gust Speed 38 mph    
Visibility 10 miles    
Events      
Averages and records for this station are not official NWS values.
T = Trace of Precipitation, MM = Missing Value Source: NWS Daily Summary

Daily Weather History Graph

Daily Weather History Graph

Search for Another Location

Airport:

Trip Planner

Search our weather history database for the weather conditions in past years. The results will help you decide how hot, cold, wet, or windy it might be!

Date:

Astronomy

Nov. 10, 2012 Rise Set
Actual Time 7:03 AM CST 5:31 PM CST
Civil Twilight 6:36 AM CST 5:58 PM CST
Nautical Twilight 6:06 AM CST 6:28 PM CST
Astronomical Twilight 5:36 AM CST 6:58 PM CST
Moon 3:17 AM CST (11/10) 3:12 PM CST (11/10)
Length of Visible Light 11h 21m
Length of Day
10h 28m
Waning Crescent, 14% of the Moon is Illuminated
Nov 10
Waning Crescent
Nov 13
New
Nov 20
First Quarter
Nov 28
Full
Dec 6
Last Quarter

Hourly Weather History & Observations

Time (CST) Temp. Dew Point Humidity Pressure Visibility Wind Dir Wind Speed Gust Speed Precip Events Conditions
12:55 AM 65.5 °F 54.9 °F 68% 29.84 in 10.0 mi South 5.8 mph - N/A   Clear
1:55 AM 63.7 °F 54.7 °F 72% 29.84 in 10.0 mi South 8.1 mph - N/A   Clear
2:55 AM 62.4 °F 55.0 °F 77% 29.83 in 10.0 mi South 9.2 mph - N/A   Clear
3:55 AM 61.3 °F 54.5 °F 78% 29.83 in 10.0 mi SSE 6.9 mph - N/A   Clear
4:55 AM 60.4 °F 54.5 °F 81% 29.84 in 10.0 mi SSE 10.4 mph - N/A   Clear
5:55 AM 61.2 °F 56.3 °F 84% 29.84 in 10.0 mi SSE 10.4 mph - N/A   Clear
6:55 AM 62.1 °F 58.1 °F 87% 29.86 in 10.0 mi SSE 12.7 mph - N/A   Overcast
7:21 AM 62.6 °F 59.0 °F 88% 29.86 in 10.0 mi SSE 13.8 mph - N/A   Overcast
7:55 AM 62.4 °F 58.6 °F 87% 29.87 in 10.0 mi SSE 12.7 mph - N/A   Overcast
8:15 AM 62.6 °F 59.0 °F 88% 29.86 in 10.0 mi SSE 12.7 mph - N/A   Overcast
8:55 AM 64.0 °F 59.4 °F 85% 29.86 in 10.0 mi SSE 16.1 mph - N/A   Overcast
9:30 AM 66.2 °F 59.0 °F 78% 29.85 in 10.0 mi SSE 16.1 mph - N/A   Overcast
9:55 AM 65.8 °F 59.2 °F 79% 29.85 in 10.0 mi South 17.3 mph - N/A   Overcast
10:21 AM 66.2 °F 59.0 °F 78% 29.84 in 10.0 mi South 18.4 mph - N/A   Overcast
10:55 AM 69.6 °F 59.5 °F 70% 29.82 in 10.0 mi South 18.4 mph - N/A   Overcast
11:55 AM 72.9 °F 59.4 °F 62% 29.78 in 10.0 mi South 21.9 mph 29.9 mph N/A   Overcast
12:55 PM 76.3 °F 59.0 °F 55% 29.73 in 10.0 mi South 25.3 mph 38.0 mph N/A   Scattered Clouds
1:55 PM 78.8 °F 59.0 °F 51% 29.70 in 10.0 mi South 24.2 mph 31.1 mph N/A   Partly Cloudy
2:55 PM 78.3 °F 57.9 °F 49% 29.68 in 10.0 mi South 24.2 mph 34.5 mph N/A   Clear
3:55 PM 77.0 °F 57.9 °F 52% 29.68 in 10.0 mi South 20.7 mph 28.8 mph N/A   Clear
4:55 PM 76.1 °F 56.8 °F 51% 29.67 in 10.0 mi South 23.0 mph 32.2 mph N/A   Clear
5:55 PM 75.0 °F 56.1 °F 52% 29.68 in 10.0 mi South 19.6 mph 26.5 mph N/A   Clear
6:55 PM 72.9 °F 56.5 °F 56% 29.69 in 10.0 mi SSE 17.3 mph 25.3 mph N/A   Clear
7:55 PM 72.7 °F 55.4 °F 55% 29.69 in 10.0 mi South 21.9 mph 31.1 mph N/A   Clear
8:55 PM 71.4 °F 55.0 °F 56% 29.69 in 10.0 mi South 19.6 mph 26.5 mph N/A   Clear
9:55 PM 71.4 °F 55.9 °F 58% 29.68 in 10.0 mi South 18.4 mph 25.3 mph N/A   Clear
10:55 PM 71.1 °F 57.7 °F 63% 29.67 in 10.0 mi South 19.6 mph 29.9 mph N/A   Clear
11:55 PM 70.3 °F 58.6 °F 66% 29.68 in 10.0 mi South 17.3 mph 26.5 mph N/A   Clear